When you browse on this site, cookies collect data to enhance your experience and personalize the content and advertising you see.
Visit our Privacy Policy to learn more. By continuing to use the site, you agree to this use of cookies and data.
  • In United Kingdom
  • List of Countries
  • For 7 days
  • Water Temperature
  • Satellite Maps
  • Weather Map
  • Weather Widgets
  • user-avatar
    Login

    Hourly Weather Salgotarjan

    Today, 19 April, Friday

    Time Temperature Precipitation Wind Pressure Humidity
    00:00 +8°C° 0 mm 2 mps 741 mmHg 76%
    01:00 +7°C° 0 mm 2 mps 741 mmHg 77%
    02:00 +7°C° 0 mm 2 mps 741 mmHg 77%
    03:00 +8°C° 0 mm 1 mps 741 mmHg 76%
    04:00 +8°C° 0 mm 1 mps 741 mmHg 76%
    05:00 +9°C° 0 mm 1 mps 741 mmHg 72%
    06:00 +10°C° 0 mm 1 mps 741 mmHg 68%
    07:00 +12°C° 0 mm 1 mps 741 mmHg 63%
    08:00 +14°C° 0 mm 2 mps 741 mmHg 55%
    09:00 +16°C° 0 mm 2 mps 742 mmHg 47%
    10:00 +18°C° 0 mm 2 mps 742 mmHg 38%
    11:00 +19°C° 0 mm 3 mps 742 mmHg 35%
    12:00 +20°C° 0 mm 3 mps 741 mmHg 33%
    13:00 +21°C° 0 mm 3 mps 741 mmHg 30%
    14:00 +20°C° 0 mm 3 mps 741 mmHg 31%
    15:00 +20°C° 0 mm 4 mps 741 mmHg 32%
    16:00 +19°C° 0 mm 4 mps 741 mmHg 33%
    17:00 +17°C° 0 mm 4 mps 741 mmHg 39%
    18:00 +14°C° 0 mm 3 mps 741 mmHg 45%
    19:00 +12°C° 0 mm 3 mps 741 mmHg 50%
    20:00 +11°C° 0 mm 3 mps 741 mmHg 53%
    21:00 +10°C° 0 mm 3 mps 741 mmHg 56%
    22:00 +9°C° 0 mm 2 mps 742 mmHg 59%
    23:00 +8°C° 0 mm 2 mps 742 mmHg 62%

    Tomorrow, 20 April, Saturday

    Time Temperature Precipitation Wind Pressure Humidity
    00:00 +8°C° 0 mm 2 mps 742 mmHg 64%
    01:00 +8°C° 0 mm 1 mps 742 mmHg 67%
    02:00 +7°C° 0 mm 1 mps 742 mmHg 67%
    03:00 +7°C° 0 mm 1 mps 742 mmHg 68%
    04:00 +7°C° 0 mm 1 mps 742 mmHg 69%
    05:00 +8°C° 0 mm 1 mps 742 mmHg 65%
    06:00 +9°C° 0 mm 1 mps 742 mmHg 61%
    07:00 +11°C° 0 mm 1 mps 742 mmHg 57%
    08:00 +13°C° 0 mm 1 mps 742 mmHg 50%
    09:00 +14°C° 0 mm 2 mps 742 mmHg 43%
    10:00 +16°C° 0 mm 2 mps 742 mmHg 36%
    11:00 +17°C° 0 mm 2 mps 741 mmHg 34%
    12:00 +19°C° 0 mm 1 mps 741 mmHg 32%
    13:00 +21°C° 0 mm 1 mps 741 mmHg 30%
    14:00 +20°C° 0 mm 1 mps 740 mmHg 31%
    15:00 +20°C° 0 mm 1 mps 740 mmHg 32%
    16:00 +20°C° 0 mm 1 mps 739 mmHg 34%
    17:00 +18°C° 0 mm 1 mps 739 mmHg 40%
    18:00 +15°C° 0 mm 1 mps 738 mmHg 47%
    19:00 +13°C° 0 mm 1 mps 738 mmHg 54%
    20:00 +12°C° 0 mm 1 mps 738 mmHg 57%
    21:00 +12°C° 0 mm 1 mps 738 mmHg 60%
    22:00 +11°C° 0 mm 1 mps 738 mmHg 63%
    23:00 +10°C° 0 mm 1 mps 738 mmHg 65%

    Day after tomorrow, 21 April, Sunday

    Time Temperature Precipitation Wind Pressure Humidity
    00:00 +9°C° 0 mm 1 mps 737 mmHg 67%
    01:00 +9°C° 0 mm 1 mps 737 mmHg 69%
    02:00 +8°C° 0 mm 1 mps 737 mmHg 71%
    03:00 +8°C° 0 mm 1 mps 737 mmHg 73%
    04:00 +8°C° 0 mm 1 mps 736 mmHg 75%
    05:00 +9°C° 0 mm 1 mps 736 mmHg 70%
    06:00 +10°C° 0 mm 1 mps 736 mmHg 66%
    07:00 +12°C° 0 mm 1 mps 736 mmHg 62%
    08:00 +14°C° 0 mm 1 mps 736 mmHg 55%
    09:00 +16°C° 0 mm 1 mps 736 mmHg 48%
    10:00 +19°C° 0 mm 1 mps 737 mmHg 42%
    11:00 +20°C° 0 mm 1 mps 736 mmHg 38%
    12:00 +20°C° 0 mm 1 mps 736 mmHg 35%
    13:00 +21°C° 0 mm 1 mps 735 mmHg 32%
    14:00 +21°C° 0 mm 1 mps 735 mmHg 32%
    15:00 +20°C° 0 mm 1 mps 735 mmHg 33%
    16:00 +20°C° 0 mm 1 mps 734 mmHg 33%
    17:00 +18°C° 0 mm 1 mps 734 mmHg 42%
    18:00 +15°C° 0 mm 1 mps 734 mmHg 50%
    19:00 +13°C° 0 mm 1 mps 734 mmHg 59%
    20:00 +12°C° 0 mm 1 mps 734 mmHg 65%
    21:00 +10°C° 0 mm 2 mps 734 mmHg 70%
    22:00 +9°C° 0 mm 2 mps 734 mmHg 76%
    23:00 +9°C° 0 mm 2 mps 734 mmHg 80%

    22 April, Monday

    Time Temperature Precipitation Wind Pressure Humidity
    00:00 +9°C° 0 mm 1 mps 734 mmHg 84%
    01:00 +8°C° 0 mm 1 mps 734 mmHg 88%
    02:00 +8°C° 0 mm 1 mps 733 mmHg 89%
    03:00 +8°C° 0 mm 1 mps 733 mmHg 90%
    04:00 +8°C° 0 mm 1 mps 733 mmHg 91%
    05:00 +9°C° 0 mm 1 mps 733 mmHg 87%
    06:00 +10°C° 0 mm 1 mps 733 mmHg 83%
    07:00 +11°C° 0 mm 1 mps 733 mmHg 78%
    08:00 +13°C° 0 mm 2 mps 733 mmHg 72%
    09:00 +14°C° 0 mm 2 mps 733 mmHg 65%
    10:00 +16°C° 0 mm 3 mps 733 mmHg 58%
    11:00 +17°C° 0 mm 3 mps 733 mmHg 53%
    12:00 +18°C° 0 mm 4 mps 733 mmHg 47%
    13:00 +19°C° 0 mm 4 mps 733 mmHg 42%
    14:00 +19°C° 0 mm 4 mps 732 mmHg 43%
    15:00 +19°C° 0 mm 5 mps 732 mmHg 44%
    16:00 +17°C° 0 mm 5 mps 731 mmHg 45%
    17:00 +17°C° 0 mm 4 mps 731 mmHg 52%
    18:00 +14°C° 0 mm 3 mps 731 mmHg 58%
    19:00 +13°C° 0 mm 3 mps 731 mmHg 65%
    20:00 +12°C° 0 mm 3 mps 731 mmHg 67%
    21:00 +13°C° 0 mm 2 mps 731 mmHg 70%
    22:00 +12°C° 0 mm 2 mps 731 mmHg 72%
    23:00 +12°C° 0 mm 2 mps 731 mmHg 74%

    23 April, Tuesday

    Time Temperature Precipitation Wind Pressure Humidity
    00:00 +10°C° 0 mm 2 mps 731 mmHg 76%
    01:00 +9°C° 0 mm 2 mps 731 mmHg 78%
    02:00 +10°C° 0 mm 3 mps 731 mmHg 76%
    03:00 +10°C° 0 mm 3 mps 731 mmHg 74%
    04:00 +10°C° 0 mm 3 mps 731 mmHg 72%
    05:00 +10°C° 0.1 mm 4 mps 731 mmHg 72%
    06:00 +10°C° 0.1 mm 4 mps 732 mmHg 71%
    07:00 +8°C° 0.1 mm 4 mps 732 mmHg 71%
    08:00 +10°C° 0.3 mm 4 mps 732 mmHg 73%
    09:00 +10°C° 0.3 mm 4 mps 732 mmHg 75%
    10:00 +10°C° 0.3 mm 4 mps 732 mmHg 77%
    11:00 +11°C° 0 mm 4 mps 732 mmHg 75%
    12:00 +11°C° 0 mm 4 mps 732 mmHg 72%
    13:00 +12°C° 0 mm 4 mps 732 mmHg 70%
    14:00 +13°C° 0 mm 4 mps 731 mmHg 68%
    15:00 +13°C° 0 mm 4 mps 731 mmHg 65%
    16:00 +14°C° 0 mm 4 mps 731 mmHg 63%
    17:00 +13°C° 0 mm 3 mps 731 mmHg 66%
    18:00 +12°C° 0 mm 3 mps 731 mmHg 70%
    19:00 +13°C° 0 mm 2 mps 731 mmHg 74%
    20:00 +12°C° 0 mm 2 mps 731 mmHg 75%
    21:00 +12°C° 0 mm 2 mps 731 mmHg 76%
    22:00 +10°C° 0 mm 2 mps 732 mmHg 78%
    23:00 +10°C° 0.4 mm 2 mps 732 mmHg 81%

    24 April, Wednesday

    Time Temperature Precipitation Wind Pressure Humidity
    00:00 +10°C° 0.4 mm 2 mps 732 mmHg 84%
    01:00 +10°C° 0.4 mm 2 mps 732 mmHg 88%
    02:00 +9°C° 0.2 mm 2 mps 732 mmHg 89%
    03:00 +9°C° 0.2 mm 3 mps 732 mmHg 90%
    04:00 +9°C° 0.2 mm 3 mps 732 mmHg 91%
    05:00 +9°C° 0 mm 3 mps 733 mmHg 90%
    06:00 +9°C° 0 mm 3 mps 733 mmHg 89%
    07:00 +9°C° 0 mm 3 mps 734 mmHg 88%
    08:00 +10°C° 0 mm 3 mps 734 mmHg 88%
    09:00 +10°C° 0 mm 3 mps 734 mmHg 87%
    10:00 +10°C° 0 mm 3 mps 734 mmHg 87%
    11:00 +11°C° 0 mm 3 mps 734 mmHg 85%
    12:00 +11°C° 0 mm 3 mps 734 mmHg 83%
    13:00 +12°C° 0 mm 3 mps 734 mmHg 81%
    14:00 +12°C° 0 mm 3 mps 734 mmHg 79%
    15:00 +13°C° 0 mm 3 mps 734 mmHg 77%
    16:00 +13°C° 0 mm 3 mps 734 mmHg 76%
    17:00 +13°C° 0 mm 2 mps 734 mmHg 81%
    18:00 +12°C° 0 mm 2 mps 734 mmHg 86%
    19:00 +10°C° 0 mm 2 mps 734 mmHg 91%
    20:00 +12°C° 0 mm 2 mps 734 mmHg 89%
    21:00 +12°C° 0 mm 1 mps 734 mmHg 88%
    22:00 +12°C° 0 mm 1 mps 735 mmHg 87%
    23:00 +12°C° 0 mm 1 mps 735 mmHg 86%
    Show more